Location: Alpha Ridge Park
(39.3209°N, 76.9128°W)
Time: 08:53:59
(UTC-04:00)

BEESAT - Pass Details

Date: 02 July 2022
Orbit: 700 x 706 km, 98.6° (Epoch: 13 August)

Event Time Altitude Azimuth Distance (km) Brightness Sun altitude
Rises 21:55:57 0° 7° (N) 3,102 ? -12.7°
Reaches altitude 10° 21:58:16 10° 3° (N) 2,181 ? -13.0°
Maximum altitude 22:02:53 52° 288° (WNW) 876 ? -13.7°
Drops below altitude 10° 22:07:30 10° 212° (SSW) 2,169 ? -14.3°
Sets 22:09:47 0° 208° (SSW) 3,084 ? -14.6°
